Medford, OR

11:48 PM PST on November 19, 2017 (GMT -0800)
Rogue Valley International-Medford

Weather History for KMFR - May, 2014

Change the Weather History Date:

Wednesday, May 21, 2014

  Actual Average Record
Temperature  
Mean Temperature 65 °F 61 °F  
Max Temperature 82 °F 75 °F 96 °F (2001)
Min Temperature 48 °F 47 °F 30 °F (1918)
Degree Days  
Heating Degree Days 0 5  
Month to date heating degree days 96 152  
Since 1 July heating degree days 4146 4151  
Cooling Degree Days 0 1  
Month to date cooling degree days 27 20  
Year to date cooling degree days 31 23  
Growing Degree Days 14 (Base 50)    
Moisture  
Dew Point 46 °F    
Average Humidity 56    
Maximum Humidity 86    
Minimum Humidity 26    
Precipitation  
Precipitation 0.00 in 0.04 in 0.80 in (1996)
Month to date precipitation 0.47 0.90  
Year to date precipitation 10.12 8.43  
Snow  
Snow 0.00 in 0.00 in - ()
Month to date snowfall 0.0 0.0  
Since 1 July snowfall 3.4 4.1  
Snow Depth 0.00 in    
Sea Level Pressure  
Sea Level Pressure 30.04 in    
Wind  
Wind Speed 4 mph (NW)    
Max Wind Speed 16 mph    
Max Gust Speed 22 mph    
Visibility 10 miles    
Events      
T = Trace of Precipitation, MM = Missing Value Source: NWS Daily Summary

Daily Weather History Graph

Daily Weather History Graph

Search for Another Location

Airport or City:

Trip Planner

Search our weather history database for the weather conditions in past years. The results will help you decide how hot, cold, wet, or windy it might be!

Date:

Astronomy

May. 21, 2014 Rise Set
Actual Time 5:44 AM PDT 8:32 PM PDT
Civil Twilight 5:11 AM PDT 9:05 PM PDT
Nautical Twilight 4:30 AM PDT 9:46 PM PDT
Astronomical Twilight 3:42 AM PDT 10:34 PM PDT
Moon 1:39 AM PDT (5/21) 1:11 PM PDT (5/21)
Length of Visible Light 15h 53m
Length of Day
14h 48m
Waning Gibbous, 47% of the Moon is Illuminated
May 21
Waning Gibbous
May 28
New
Jun 5
First Quarter
Jun 12
Full
Jun 19
Last Quarter

Hourly Weather History & Observations

Time (PDT) Temp. Dew Point Humidity Pressure Visibility Wind Dir Wind Speed Gust Speed Precip Events Conditions
12:53 AM 59.0 °F 48.0 °F 67% 30.07 in 10.0 mi Calm Calm - N/A   Clear
1:53 AM 57.0 °F 48.9 °F 74% 30.07 in 10.0 mi SW 3.5 mph - N/A   Clear
2:53 AM 54.0 °F 46.0 °F 75% 30.07 in 10.0 mi Calm Calm - N/A   Clear
3:53 AM 54.0 °F 46.9 °F 77% 30.06 in 10.0 mi WSW 3.5 mph - N/A   Clear
4:53 AM 51.1 °F 46.0 °F 83% 30.06 in 10.0 mi Calm Calm - N/A   Clear
5:53 AM 48.0 °F 45.0 °F 89% 30.08 in 10.0 mi Calm Calm - N/A   Clear
6:53 AM 50.0 °F 46.0 °F 86% 30.09 in 10.0 mi Calm Calm - N/A   Clear
8:04 AM 54.0 °F 46.9 °F 77% 30.11 in 10.0 mi Calm Calm - N/A   Mostly Cloudy
8:45 AM 57.0 °F 48.0 °F 72% 30.12 in 10.0 mi Calm Calm - N/A   Mostly Cloudy
8:53 AM 57.0 °F 48.0 °F 72% 30.10 in 10.0 mi Calm Calm - N/A   Mostly Cloudy
9:53 AM 62.1 °F 48.0 °F 60% 30.08 in 10.0 mi NNW 3.5 mph - N/A   Scattered Clouds
10:53 AM 66.2 °F 48.2 °F 52% 30.08 in 10.0 mi NW 3.5 mph - N/A   Scattered Clouds
11:53 AM 69.1 °F 45.0 °F 42% 30.05 in 10.0 mi Variable 3.5 mph - N/A   Clear
12:53 PM 71.1 °F 48.0 °F 44% 30.03 in 10.0 mi Calm Calm - N/A   Clear
1:53 PM 75.0 °F 46.9 °F 37% 30.01 in 10.0 mi North - - N/A   Clear
2:53 PM 79.0 °F 45.0 °F 30% 29.99 in 10.0 mi Variable 3.5 mph - N/A   Clear
3:53 PM 78.1 °F 46.0 °F 32% 29.97 in 10.0 mi NNW 5.8 mph - N/A   Partly Cloudy
4:53 PM 80.1 °F 44.1 °F 28% 29.96 in 10.0 mi West 9.2 mph 19.6 mph N/A   Partly Cloudy
5:53 PM 80.1 °F 42.1 °F 26% 29.96 in 10.0 mi NNW 11.5 mph - N/A   Partly Cloudy
6:53 PM 77.0 °F 45.0 °F 32% 29.97 in 10.0 mi NW 15.0 mph - N/A   Partly Cloudy
7:53 PM 73.0 °F 45.0 °F 37% 29.99 in 10.0 mi NNW 10.4 mph - N/A   Clear
8:53 PM 69.1 °F 44.1 °F 40% 30.01 in 10.0 mi NNW 8.1 mph - N/A   Clear
9:53 PM 66.9 °F 43.0 °F 42% 30.02 in 10.0 mi NW 4.6 mph - N/A   Clear
10:53 PM 63.0 °F 42.1 °F 46% 30.04 in 10.0 mi Calm Calm - N/A   Clear
11:53 PM 61.0 °F 43.0 °F 52% 30.04 in 10.0 mi Calm Calm - N/A   Clear